STARLINK-1789

operational
NORAD ID: 46690 Int'l Des: 2020-073 Owner: SPXS Country: US Constellation: starlink
LEOCIRCULARSTARLINK_TYPE

关于 STARLINK-1789

正在加载描述...

实时位置

正在加载3D地球...

即将过境

高度历史

Altitude vs Time

uPlot chart will show altitude changes over time

两行轨道根数

1 46690U 20073W 25252.22544410 .00010036 00000-0 69200-3 0 9995
2 46690 53.0556 326.2455 0001361 101.3606 258.7536 15.06384299269916
Epoch: Sep 9, 2025 • Age: 10 hours

当前状态

高度 552.4 km
速度 7.59 km/s
星下点 50.92°N, 173.06°E
发射日期 Oct 18, 2020
运行时间 4.8 years
类型 internet

技术详情

分类 Payload
质量 260.00 kg
干质量 248.00 kg
总质量 260.00 kg
长度 0.20 m
直径 2.80 m
跨度 9.00 m
形状 Box + pan
制造商 SPXS
平台类型 Starlink
阶段状态 In Orbit
所有者/国家 SPXS/US

大型星座

Loading constellations...